| time (UTC) | temp F | wind direction | speed MPH | gust MPH | rain 1hr in | rain 24hr in | rain mn in | humidity % | barometer mb |
| 20260507010432 | 68 | 239 | 0.0 | 4.0 | 0.00 | 0.00 | 0.00 | 78 | 1007.9 |
| 20260507005932 | 68 | 211 | 1.0 | 3.0 | 0.00 | 0.00 | 0.00 | 78 | 1007.5 |
| 20260507005432 | 68 | 180 | 0.0 | 2.0 | 0.00 | 0.00 | 0.00 | 78 | 1007.2 |
| 20260507004935 | 68 | 181 | 0.0 | 2.0 | 0.00 | 0.00 | 0.00 | 77 | 1007.2 |
| 20260507004432 | 68 | 196 | 1.0 | 2.0 | 0.00 | 0.00 | 0.00 | 77 | 1007.1 |
| 20260507003932 | 69 | 212 | 0.0 | 5.0 | 0.00 | 0.00 | 0.00 | 76 | 1007.2 |
| 20260507003432 | 69 | 183 | 1.0 | 5.0 | 0.00 | 0.00 | 0.00 | 76 | 1007.2 |
| 20260507002932 | 69 | 201 | 0.0 | 2.0 | 0.00 | 0.00 | 0.00 | 76 | 1007.2 |
| 20260507002436 | 69 | 254 | 4.0 | 4.0 | 0.00 | 0.00 | 0.00 | 76 | 1007.0 |
| 20260507001933 | 69 | 351 | 3.0 | 6.0 | 0.00 | 0.00 | 0.00 | 76 | 1007.0 |
| 20260507001432 | 69 | 170 | 3.0 | 5.0 | 0.00 | 0.00 | 0.00 | 75 | 1006.9 |
| 20260507000935 | 69 | 291 | 3.0 | 6.0 | 0.00 | 0.00 | 0.00 | 75 | 1006.8 |
| 20260507000435 | 69 | 217 | 1.0 | 7.0 | 0.00 | 0.00 | 0.00 | 75 | 1006.8 |
| 20260506235935 | 69 | 173 | 3.0 | 2.0 | 0.00 | 0.00 | 0.00 | 75 | 1006.9 |
| 20260506235433 | 69 | 166 | 1.0 | 4.0 | 0.00 | 0.00 | 0.00 | 75 | 1006.9 |
| 20260506234932 | 69 | 160 | 3.0 | 5.0 | 0.00 | 0.00 | 0.00 | 75 | 1006.8 |
| 20260506234432 | 69 | 222 | 4.0 | 5.0 | 0.00 | 0.00 | 0.00 | 75 | 1006.9 |
| 20260506233935 | 69 | 11 | 1.0 | 5.0 | 0.00 | 0.00 | 0.00 | 75 | 1006.8 |
| 20260506233433 | 69 | 207 | 3.0 | 4.0 | 0.00 | 0.00 | 0.00 | 75 | 1006.8 |
| 20260506232938 | 69 | 194 | 0.0 | 4.0 | 0.00 | 0.00 | 0.00 | 75 | 1006.9 |
| 20260506232432 | 69 | 142 | 3.0 | 5.0 | 0.00 | 0.00 | 0.00 | 74 | 1006.8 |
| 20260506231932 | 69 | 244 | 4.0 | 6.0 | 0.00 | 0.00 | 0.00 | 74 | 1006.7 |
| 20260506231436 | 70 | 234 | 1.0 | 7.0 | 0.00 | 0.00 | 0.00 | 74 | 1006.7 |
| 20260506230933 | 70 | 202 | 1.0 | 7.0 | 0.00 | 0.00 | 0.00 | 73 | 1006.6 |
| 20260506230434 | 70 | 147 | 3.0 | 6.0 | 0.00 | 0.00 | 0.00 | 74 | 1006.6 |
| 20260506225935 | 70 | 142 | 6.0 | 8.0 | 0.00 | 0.00 | 0.00 | 73 | 1006.6 |
| 20260506225432 | 70 | 175 | 3.0 | 7.0 | 0.00 | 0.00 | 0.00 | 73 | 1006.7 |
| 20260506224935 | 70 | 175 | 1.0 | 2.0 | 0.00 | 0.00 | 0.00 | 74 | 1006.7 |
| 20260506224436 | 70 | 162 | 3.0 | 7.0 | 0.00 | 0.00 | 0.00 | 73 | 1006.5 |
| 20260506223935 | 70 | 161 | 6.0 | 6.0 | 0.00 | 0.00 | 0.00 | 73 | 1006.5 |
| 20260506223435 | 70 | 165 | 6.0 | 5.0 | 0.00 | 0.00 | 0.00 | 73 | 1006.7 |
| 20260506222932 | 70 | 199 | 0.0 | 5.0 | 0.00 | 0.00 | 0.00 | 74 | 1006.7 |
| 20260506222435 | 70 | 171 | 3.0 | 4.0 | 0.00 | 0.00 | 0.00 | 73 | 1006.8 |
| 20260506221932 | 70 | 222 | 3.0 | 8.0 | 0.00 | 0.00 | 0.00 | 72 | 1006.7 |
| 20260506221435 | 71 | 194 | 4.0 | 7.0 | 0.00 | 0.00 | 0.00 | 72 | 1006.6 |
| 20260506220932 | 71 | 247 | 1.0 | 4.0 | 0.00 | 0.00 | 0.00 | 72 | 1006.5 |
| 20260506220438 | 71 | 63 | 3.0 | 5.0 | 0.00 | 0.00 | 0.00 | 72 | 1006.6 |
| 20260506215932 | 70 | 190 | 4.0 | 7.0 | 0.00 | 0.00 | 0.00 | 73 | 1006.5 |
| 20260506215435 | 70 | 166 | 4.0 | 8.0 | 0.00 | 0.00 | 0.00 | 73 | 1006.6 |
| 20260506214938 | 70 | 231 | 1.0 | 7.0 | 0.00 | 0.00 | 0.00 | 74 | 1006.4 |
| 20260506214432 | 70 | 192 | 4.0 | 7.0 | 0.00 | 0.00 | 0.00 | 74 | 1006.5 |
| 20260506213932 | 70 | 258 | 9.0 | 6.0 | 0.00 | 0.00 | 0.00 | 73 | 1006.4 |
| 20260506213431 | 70 | 184 | 1.0 | 5.0 | 0.00 | 0.00 | 0.00 | 73 | 1006.3 |
| 20260506212932 | 70 | 200 | 1.0 | 9.0 | 0.00 | 0.00 | 0.00 | 72 | 1006.4 |
| 20260506212431 | 70 | 151 | 7.0 | 6.0 | 0.00 | 0.00 | 0.00 | 73 | 1006.3 |
| 20260506211932 | 70 | 227 | 0.0 | 7.0 | 0.00 | 0.00 | 0.00 | 73 | 1006.3 |
| 20260506211438 | 70 | 186 | 6.0 | 10.0 | 0.00 | 0.00 | 0.00 | 73 | 1006.4 |
| 20260506210940 | 70 | 261 | 4.0 | 6.0 | 0.00 | 0.00 | 0.00 | 74 | 1006.3 |
| 20260506210435 | 69 | 156 | 9.0 | 7.0 | 0.00 | 0.00 | 0.00 | 74 | 1006.3 |
| 20260506205938 | 69 | 175 | 6.0 | 6.0 | 0.00 | 0.00 | 0.00 | 74 | 1006.2 |
| 20260506205435 | 69 | 251 | 3.0 | 9.0 | 0.00 | 0.00 | 0.00 | 75 | 1006.2 |
| 20260506204935 | 69 | 307 | 4.0 | 6.0 | 0.00 | 0.00 | 0.00 | 74 | 1006.1 |
| 20260506204432 | 69 | 192 | 4.0 | 6.0 | 0.00 | 0.00 | 0.00 | 75 | 1005.9 |
| 20260506203934 | 68 | 170 | 1.0 | 11.0 | 0.00 | 0.00 | 0.00 | 75 | 1006.0 |
| 20260506203435 | 68 | 0 | 3.0 | 10.0 | 0.00 | 0.00 | 0.00 | 75 | 1006.2 |
| 20260506202935 | 68 | 174 | 1.0 | 8.0 | 0.00 | 0.00 | 0.00 | 75 | 1006.2 |
| 20260506202433 | 69 | 134 | 12.0 | 11.0 | 0.00 | 0.00 | 0.00 | 75 | 1006.2 |
| 20260506201932 | 68 | 225 | 1.0 | 8.0 | 0.00 | 0.00 | 0.00 | 76 | 1006.0 |
| 20260506201435 | 68 | 302 | 6.0 | 10.0 | 0.00 | 0.00 | 0.00 | 76 | 1006.1 |
| 20260506200933 | 68 | 218 | 1.0 | 9.0 | 0.00 | 0.00 | 0.00 | 76 | 1006.3 |
| 20260506200432 | 67 | 188 | 3.0 | 9.0 | 0.00 | 0.00 | 0.00 | 77 | 1006.3 |
| 20260506195932 | 67 | 163 | 1.0 | 9.0 | 0.00 | 0.00 | 0.00 | 78 | 1006.3 |
| 20260506195432 | 67 | 148 | 7.0 | 7.0 | 0.00 | 0.00 | 0.00 | 78 | 1006.4 |
| 20260506194932 | 67 | 194 | 6.0 | 9.0 | 0.00 | 0.00 | 0.00 | 78 | 1006.5 |
| 20260506194435 | 66 | 187 | 9.0 | 12.0 | 0.00 | 0.00 | 0.00 | 78 | 1006.7 |
| 20260506193932 | 66 | 211 | 3.0 | 7.0 | 0.00 | 0.00 | 0.00 | 78 | 1006.6 |
| 20260506193433 | 66 | 227 | 6.0 | 6.0 | 0.00 | 0.00 | 0.00 | 78 | 1006.7 |
| 20260506192935 | 66 | 216 | 1.0 | 8.0 | 0.00 | 0.00 | 0.00 | 78 | 1006.7 |
| 20260506192432 | 66 | 241 | 1.0 | 7.0 | 0.00 | 0.00 | 0.00 | 78 | 1006.8 |
| 20260506191935 | 66 | 191 | 6.0 | 10.0 | 0.00 | 0.00 | 0.00 | 78 | 1006.8 |
| 20260506191432 | 66 | 140 | 10.0 | 9.0 | 0.00 | 0.00 | 0.00 | 78 | 1006.8 |
| 20260506190932 | 66 | 189 | 0.0 | 10.0 | 0.00 | 0.00 | 0.00 | 78 | 1006.9 |
| 20260506190435 | 66 | 213 | 7.0 | 9.0 | 0.00 | 0.00 | 0.00 | 78 | 1006.9 |
| 20260506185932 | 66 | 177 | 3.0 | 12.0 | 0.00 | 0.00 | 0.00 | 78 | 1006.8 |
| 20260506185432 | 66 | 153 | 15.0 | 9.0 | 0.00 | 0.00 | 0.00 | 77 | 1006.9 |
| 20260506184931 | 66 | 240 | 3.0 | 11.0 | 0.00 | 0.00 | 0.00 | 77 | 1007.0 |
| 20260506184433 | 66 | 169 | 3.0 | 16.0 | 0.00 | 0.00 | 0.00 | 77 | 1007.0 |
| 20260506183933 | 66 | 202 | 4.0 | 8.0 | 0.00 | 0.00 | 0.00 | 77 | 1007.1 |
| 20260506183435 | 66 | 288 | 4.0 | 9.0 | 0.00 | 0.00 | 0.00 | 77 | 1007.0 |
| 20260506182932 | 66 | 251 | 0.0 | 9.0 | 0.00 | 0.00 | 0.00 | 77 | 1007.1 |
| 20260506182435 | 66 | 173 | 4.0 | 11.0 | 0.00 | 0.00 | 0.00 | 77 | 1007.0 |
| 20260506181935 | 66 | 165 | 7.0 | 16.0 | 0.00 | 0.00 | 0.00 | 77 | 1007.0 |
| 20260506181438 | 66 | 153 | 10.0 | 7.0 | 0.00 | 0.00 | 0.00 | 79 | 1007.1 |
| 20260506180935 | 66 | 168 | 6.0 | 8.0 | 0.00 | 0.00 | 0.00 | 79 | 1007.1 |
| 20260506180433 | 66 | 190 | 3.0 | 11.0 | 0.00 | 0.00 | 0.00 | 80 | 1007.2 |
| 20260506175935 | 66 | 148 | 7.0 | 9.0 | 0.00 | 0.00 | 0.00 | 80 | 1007.2 |
| 20260506175435 | 66 | 169 | 1.0 | 8.0 | 0.00 | 0.00 | 0.00 | 80 | 1007.3 |
| 20260506174935 | 66 | 158 | 12.0 | 9.0 | 0.00 | 0.00 | 0.00 | 80 | 1007.3 |
| 20260506174432 | 66 | 141 | 6.0 | 13.0 | 0.00 | 0.00 | 0.00 | 80 | 1007.4 |
| 20260506173935 | 66 | 188 | 6.0 | 18.0 | 0.00 | 0.00 | 0.00 | 80 | 1007.4 |
| 20260506173438 | 67 | 167 | 1.0 | 13.0 | 0.00 | 0.00 | 0.00 | 81 | 1007.2 |
| 20260506172938 | 67 | 214 | 3.0 | 12.0 | 0.00 | 0.00 | 0.00 | 81 | 1007.2 |
| 20260506172432 | 67 | 190 | 3.0 | 7.0 | 0.00 | 0.00 | 0.00 | 82 | 1007.3 |
| 20260506171932 | 67 | 223 | 3.0 | 6.0 | 0.00 | 0.00 | 0.00 | 84 | 1007.2 |
| 20260506171431 | 67 | 218 | 0.0 | 7.0 | 0.00 | 0.00 | 0.00 | 84 | 1007.1 |
| 20260506170938 | 66 | 213 | 1.0 | 2.0 | 0.00 | 0.00 | 0.00 | 84 | 1007.3 |
| 20260506170432 | 66 | 177 | 3.0 | 6.0 | 0.00 | 0.00 | 0.00 | 84 | 1007.3 |
| 20260506165932 | 66 | 270 | 1.0 | 10.0 | 0.00 | 0.00 | 0.00 | 84 | 1007.3 |
| 20260506165434 | 66 | 162 | 3.0 | 7.0 | 0.00 | 0.00 | 0.00 | 85 | 1007.4 |
| 20260506164935 | 65 | 161 | 9.0 | 7.0 | 0.00 | 0.00 | 0.00 | 85 | 1007.4 |
| 20260506164438 | 65 | 205 | 4.0 | 10.0 | 0.00 | 0.00 | 0.00 | 84 | 1007.6 |
| 20260506163938 | 65 | 150 | 6.0 | 4.0 | 0.00 | 0.00 | 0.00 | 85 | 1007.8 |
| 20260506163432 | 65 | 169 | 0.0 | 5.0 | 0.00 | 0.00 | 0.00 | 85 | 1008.1 |
| 20260506162935 | 65 | 205 | 7.0 | 7.0 | 0.00 | 0.00 | 0.00 | 84 | 1008.3 |
| 20260506162435 | 65 | 134 | 3.0 | 6.0 | 0.00 | 0.00 | 0.00 | 82 | 1008.4 |
| 20260506161936 | 65 | 205 | 6.0 | 6.0 | 0.00 | 0.00 | 0.00 | 82 | 1008.6 |
| 20260506161435 | 65 | 172 | 3.0 | 6.0 | 0.00 | 0.00 | 0.00 | 81 | 1008.8 |
| 20260506160932 | 65 | 143 | 3.0 | 9.0 | 0.00 | 0.00 | 0.00 | 81 | 1008.8 |
| 20260506160433 | 65 | 152 | 6.0 | 6.0 | 0.00 | 0.00 | 0.00 | 80 | 1008.8 |
| 20260506155932 | 65 | 189 | 3.0 | 6.0 | 0.00 | 0.00 | 0.00 | 80 | 1008.8 |
| 20260506155431 | 65 | 173 | 1.0 | 4.0 | 0.00 | 0.00 | 0.00 | 79 | 1008.9 |
| 20260506154936 | 65 | 240 | 1.0 | 4.0 | 0.00 | 0.00 | 0.00 | 79 | 1008.9 |
| 20260506154435 | 66 | 157 | 4.0 | 7.0 | 0.00 | 0.00 | 0.00 | 77 | 1008.9 |
| 20260506153932 | 66 | 155 | 9.0 | 12.0 | 0.00 | 0.00 | 0.00 | 74 | 1008.8 |
| 20260506153433 | 67 | 233 | 6.0 | 18.0 | 0.00 | 0.00 | 0.00 | 72 | 1008.6 |
| 20260506152932 | 68 | 163 | 22.0 | 15.0 | 0.00 | 0.00 | 0.00 | 69 | 1008.6 |
| 20260506152433 | 69 | 112 | 1.0 | 9.0 | 0.00 | 0.00 | 0.00 | 67 | 1008.6 |
| 20260506151932 | 69 | 217 | 3.0 | 12.0 | 0.00 | 0.00 | 0.00 | 65 | 1008.4 |
| 20260506151432 | 70 | 177 | 6.0 | 14.0 | 0.00 | 0.00 | 0.00 | 65 | 1008.5 |
| 20260506150932 | 69 | 284 | 1.0 | 9.0 | 0.00 | 0.00 | 0.00 | 66 | 1008.6 |
| 20260506150435 | 69 | 169 | 6.0 | 14.0 | 0.00 | 0.00 | 0.00 | 68 | 1008.7 |
| 20260506145933 | 69 | 199 | 6.0 | 8.0 | 0.00 | 0.00 | 0.00 | 66 | 1008.7 |
| 20260506145435 | 70 | 317 | 3.0 | 8.0 | 0.00 | 0.00 | 0.00 | 64 | 1008.7 |
| 20260506144935 | 70 | 184 | 4.0 | 9.0 | 0.00 | 0.00 | 0.00 | 63 | 1008.7 |
| 20260506144432 | 70 | 194 | 10.0 | 12.0 | 0.00 | 0.00 | 0.00 | 63 | 1008.9 |
| 20260506143932 | 70 | 155 | 18.0 | 9.0 | 0.00 | 0.00 | 0.00 | 63 | 1008.8 |
| 20260506143438 | 70 | 159 | 3.0 | 9.0 | 0.00 | 0.00 | 0.00 | 63 | 1008.7 |
| 20260506142932 | 70 | 157 | 1.0 | 9.0 | 0.00 | 0.00 | 0.00 | 63 | 1008.6 |
| 20260506142432 | 70 | 144 | 4.0 | 12.0 | 0.00 | 0.00 | 0.00 | 62 | 1008.8 |
| 20260506141932 | 71 | 130 | 15.0 | 11.0 | 0.00 | 0.00 | 0.00 | 62 | 1008.7 |
| 20260506141432 | 71 | 165 | 1.0 | 9.0 | 0.00 | 0.00 | 0.00 | 63 | 1008.8 |
| 20260506140938 | 70 | 163 | 6.0 | 15.0 | 0.00 | 0.00 | 0.00 | 64 | 1008.6 |
| 20260506140432 | 70 | 155 | 6.0 | 10.0 | 0.00 | 0.00 | 0.00 | 64 | 1008.6 |
| 20260506135938 | 70 | 171 | 6.0 | 9.0 | 0.00 | 0.00 | 0.00 | 65 | 1008.7 |
| 20260506135432 | 69 | 200 | 3.0 | 10.0 | 0.00 | 0.00 | 0.00 | 65 | 1008.7 |
| 20260506134932 | 69 | 144 | 7.0 | 5.0 | 0.00 | 0.00 | 0.00 | 65 | 1008.7 |
| 20260506134432 | 69 | 175 | 3.0 | 12.0 | 0.00 | 0.00 | 0.00 | 65 | 1008.6 |
| 20260506133935 | 69 | 132 | 3.0 | 8.0 | 0.00 | 0.00 | 0.00 | 66 | 1008.7 |
| 20260506133438 | 69 | 152 | 10.0 | 11.0 | 0.00 | 0.00 | 0.00 | 66 | 1008.8 |
| 20260506132935 | 69 | 9 | 1.0 | 17.0 | 0.00 | 0.00 | 0.00 | 66 | 1008.7 |
| 20260506132431 | 69 | 200 | 4.0 | 7.0 | 0.00 | 0.00 | 0.00 | 66 | 1008.8 |
| 20260506131932 | 69 | 165 | 6.0 | 11.0 | 0.00 | 0.00 | 0.00 | 66 | 1009.0 |
| 20260506131432 | 69 | 277 | 3.0 | 12.0 | 0.00 | 0.00 | 0.00 | 66 | 1009.0 |
| 20260506130938 | 69 | 240 | 6.0 | 9.0 | 0.00 | 0.00 | 0.00 | 66 | 1008.9 |
| 20260506130432 | 69 | 174 | 4.0 | 10.0 | 0.00 | 0.00 | 0.00 | 66 | 1008.9 |
| 20260506125935 | 69 | 188 | 3.0 | 14.0 | 0.00 | 0.00 | 0.00 | 67 | 1008.8 |
| 20260506125441 | 68 | 268 | 0.0 | 10.0 | 0.00 | 0.00 | 0.00 | 68 | 1008.8 |
| 20260506124935 | 69 | 155 | 6.0 | 12.0 | 0.00 | 0.00 | 0.00 | 67 | 1008.9 |
| 20260506124435 | 69 | 158 | 9.0 | 9.0 | 0.00 | 0.00 | 0.00 | 67 | 1008.8 |
| 20260506123932 | 69 | 281 | 1.0 | 16.0 | 0.00 | 0.00 | 0.00 | 67 | 1008.9 |
| 20260506123435 | 69 | 158 | 3.0 | 12.0 | 0.00 | 0.00 | 0.00 | 68 | 1008.8 |
| 20260506122935 | 68 | 162 | 7.0 | 11.0 | 0.00 | 0.00 | 0.00 | 69 | 1008.7 |
| 20260506122435 | 67 | 166 | 13.0 | 14.0 | 0.00 | 0.00 | 0.00 | 69 | 1008.6 |
| 20260506121932 | 67 | 159 | 13.0 | 14.0 | 0.00 | 0.00 | 0.00 | 70 | 1008.8 |
| 20260506121435 | 67 | 178 | 3.0 | 7.0 | 0.00 | 0.00 | 0.00 | 70 | 1008.8 |
| 20260506120935 | 66 | 162 | 6.0 | 9.0 | 0.00 | 0.00 | 0.00 | 70 | 1008.8 |
| 20260506120432 | 66 | 144 | 12.0 | 8.0 | 0.00 | 0.00 | 0.00 | 70 | 1008.9 |
| 20260506115932 | 66 | 184 | 4.0 | 11.0 | 0.00 | 0.00 | 0.00 | 71 | 1008.8 |
| 20260506115432 | 66 | 136 | 4.0 | 12.0 | 0.00 | 0.00 | 0.00 | 70 | 1008.8 |
| 20260506114932 | 66 | 161 | 3.0 | 11.0 | 0.00 | 0.00 | 0.00 | 71 | 1008.9 |
| 20260506114432 | 66 | 159 | 13.0 | 9.0 | 0.00 | 0.00 | 0.00 | 71 | 1008.8 |
| 20260506113931 | 66 | 165 | 3.0 | 9.0 | 0.00 | 0.00 | 0.00 | 72 | 1008.9 |
| 20260506113432 | 66 | 146 | 6.0 | 20.0 | 0.00 | 0.00 | 0.00 | 72 | 1009.0 |
| 20260506112932 | 66 | 165 | 9.0 | 17.0 | 0.00 | 0.00 | 0.00 | 71 | 1009.1 |
| 20260506112432 | 66 | 143 | 9.0 | 13.0 | 0.00 | 0.00 | 0.00 | 72 | 1008.9 |
| 20260506111935 | 66 | 69 | 4.0 | 13.0 | 0.00 | 0.00 | 0.00 | 72 | 1008.9 |
| 20260506111435 | 66 | 156 | 4.0 | 11.0 | 0.00 | 0.00 | 0.00 | 72 | 1008.9 |
| 20260506110935 | 66 | 168 | 7.0 | 10.0 | 0.00 | 0.00 | 0.00 | 73 | 1008.9 |
| 20260506110432 | 66 | 130 | 1.0 | 11.0 | 0.00 | 0.00 | 0.00 | 73 | 1008.8 |
| 20260506105938 | 65 | 182 | 6.0 | 15.0 | 0.00 | 0.00 | 0.00 | 74 | 1008.8 |
| 20260506105435 | 65 | 163 | 6.0 | 9.0 | 0.00 | 0.00 | 0.00 | 74 | 1008.9 |
| 20260506104938 | 65 | 170 | 0.0 | 9.0 | 0.00 | 0.00 | 0.00 | 74 | 1008.8 |
| 20260506104435 | 65 | 175 | 3.0 | 12.0 | 0.00 | 0.00 | 0.00 | 74 | 1008.7 |
| 20260506103932 | 65 | 203 | 7.0 | 13.0 | 0.00 | 0.00 | 0.00 | 75 | 1008.7 |
| 20260506103432 | 65 | 167 | 22.0 | 15.0 | 0.00 | 0.00 | 0.00 | 76 | 1008.7 |
| 20260506102931 | 65 | 167 | 4.0 | 10.0 | 0.00 | 0.00 | 0.00 | 76 | 1008.7 |
| 20260506102432 | 64 | 153 | 16.0 | 12.0 | 0.00 | 0.00 | 0.00 | 76 | 1008.7 |
| 20260506101932 | 64 | 157 | 7.0 | 8.0 | 0.00 | 0.00 | 0.00 | 75 | 1008.8 |
| 20260506101432 | 65 | 153 | 3.0 | 14.0 | 0.00 | 0.00 | 0.00 | 75 | 1008.8 |
| 20260506100933 | 65 | 156 | 1.0 | 12.0 | 0.00 | 0.00 | 0.00 | 75 | 1008.8 |
| 20260506100435 | 65 | 156 | 9.0 | 12.0 | 0.00 | 0.00 | 0.00 | 75 | 1008.7 |
| 20260506095938 | 65 | 165 | 7.0 | 15.0 | 0.00 | 0.00 | 0.00 | 75 | 1008.6 |
| 20260506095432 | 65 | 167 | 7.0 | 9.0 | 0.00 | 0.00 | 0.00 | 75 | 1008.7 |
| 20260506094935 | 65 | 150 | 9.0 | 14.0 | 0.00 | 0.00 | 0.00 | 75 | 1008.6 |
| 20260506094432 | 65 | 222 | 1.0 | 15.0 | 0.00 | 0.00 | 0.00 | 75 | 1008.6 |
| 20260506093932 | 65 | 171 | 3.0 | 11.0 | 0.00 | 0.00 | 0.00 | 74 | 1008.5 |
| 20260506093438 | 65 | 155 | 10.0 | 19.0 | 0.00 | 0.00 | 0.00 | 74 | 1008.5 |
| 20260506092938 | 65 | 184 | 4.0 | 12.0 | 0.00 | 0.00 | 0.00 | 75 | 1008.5 |
| 20260506092435 | 65 | 271 | 6.0 | 12.0 | 0.00 | 0.00 | 0.00 | 74 | 1008.6 |
| 20260506091935 | 65 | 134 | 6.0 | 13.0 | 0.00 | 0.00 | 0.00 | 74 | 1008.7 |
| 20260506091435 | 65 | 157 | 7.0 | 7.0 | 0.00 | 0.00 | 0.00 | 74 | 1008.7 |
| 20260506090935 | 66 | 124 | 1.0 | 9.0 | 0.00 | 0.00 | 0.00 | 74 | 1008.8 |
| 20260506090432 | 66 | 118 | 1.0 | 13.0 | 0.00 | 0.00 | 0.00 | 74 | 1008.7 |
| 20260506085932 | 66 | 168 | 10.0 | 10.0 | 0.00 | 0.00 | 0.00 | 74 | 1008.6 |
| 20260506085438 | 66 | 226 | 7.0 | 18.0 | 0.00 | 0.00 | 0.00 | 74 | 1008.7 |
| 20260506084932 | 66 | 160 | 15.0 | 20.0 | 0.00 | 0.00 | 0.00 | 74 | 1008.7 |
| 20260506084438 | 66 | 165 | 13.0 | 11.0 | 0.00 | 0.00 | 0.00 | 74 | 1008.9 |
| 20260506083932 | 66 | 176 | 6.0 | 11.0 | 0.00 | 0.00 | 0.00 | 74 | 1008.8 |
| 20260506083432 | 66 | 124 | 7.0 | 11.0 | 0.00 | 0.00 | 0.00 | 74 | 1008.8 |
| 20260506082941 | 66 | 161 | 3.0 | 17.0 | 0.00 | 0.00 | 0.00 | 74 | 1008.9 |
| 20260506082438 | 66 | 144 | 7.0 | 10.0 | 0.00 | 0.00 | 0.00 | 74 | 1008.8 |
| 20260506081933 | 66 | 148 | 15.0 | 11.0 | 0.00 | 0.00 | 0.00 | 74 | 1008.9 |
| 20260506081431 | 66 | 178 | 3.0 | 12.0 | 0.00 | 0.00 | 0.00 | 74 | 1008.9 |
| 20260506080938 | 66 | 178 | 6.0 | 12.0 | 0.00 | 0.00 | 0.00 | 74 | 1009.0 |
| 20260506080432 | 66 | 167 | 9.0 | 12.0 | 0.00 | 0.00 | 0.00 | 74 | 1008.9 |
| 20260506073432 | 66 | 146 | 4.0 | 8.0 | 0.00 | 0.00 | 0.00 | 74 | 1009.0 |
| 20260506072938 | 66 | 173 | 9.0 | 12.0 | 0.00 | 0.00 | 0.00 | 73 | 1009.0 |
| 20260506072439 | 66 | 166 | 0.0 | 11.0 | 0.00 | 0.00 | 0.00 | 73 | 1009.0 |
| 20260506071932 | 67 | 140 | 13.0 | 17.0 | 0.00 | 0.00 | 0.00 | 73 | 1009.0 |
| 20260506071438 | 67 | 176 | 6.0 | 16.0 | 0.00 | 0.00 | 0.00 | 73 | 1009.0 |
| 20260506070932 | 67 | 171 | 6.0 | 15.0 | 0.00 | 0.00 | 0.00 | 72 | 1009.1 |
| 20260506070435 | 67 | 183 | 4.0 | 12.0 | 0.00 | 0.00 | 0.00 | 73 | 1009.1 |
| 20260506062436 | 67 | 164 | 6.0 | 8.0 | 0.00 | 0.00 | 0.00 | 71 | 1009.2 |
| 20260506061932 | 67 | 161 | 9.0 | 12.0 | 0.00 | 0.00 | 0.00 | 71 | 1009.2 |
| 20260506061435 | 67 | 286 | 4.0 | 9.0 | 0.00 | 0.00 | 0.00 | 71 | 1009.3 |
| 20260506060932 | 67 | 150 | 1.0 | 10.0 | 0.00 | 0.00 | 0.00 | 71 | 1009.3 |
| 20260506060432 | 68 | 163 | 7.0 | 11.0 | 0.00 | 0.00 | 0.00 | 70 | 1009.3 |
| 20260506050932 | 69 | 173 | 1.0 | 12.0 | 0.00 | 0.00 | 0.00 | 67 | 1009.6 |
| 20260506050434 | 69 | 140 | 10.0 | 10.0 | 0.00 | 0.00 | 0.00 | 67 | 1009.7 |
| 20260506044932 | 69 | 201 | 4.0 | 10.0 | 0.00 | 0.00 | 0.00 | 66 | 1009.9 |
| 20260506044437 | 69 | 126 | 3.0 | 12.0 | 0.00 | 0.00 | 0.00 | 65 | 1009.9 |
| 20260506043932 | 69 | 184 | 10.0 | 8.0 | 0.00 | 0.00 | 0.00 | 65 | 1009.9 |
| 20260506043438 | 69 | 143 | 9.0 | 11.0 | 0.00 | 0.00 | 0.00 | 64 | 1009.8 |
| 20260506042938 | 69 | 175 | 6.0 | 11.0 | 0.00 | 0.00 | 0.00 | 64 | 1009.9 |
| 20260506042441 | 69 | 173 | 4.0 | 11.0 | 0.00 | 0.00 | 0.00 | 64 | 1009.9 |
| 20260506041932 | 69 | 180 | 4.0 | 10.0 | 0.00 | 0.00 | 0.00 | 64 | 1009.9 |
| 20260506041435 | 69 | 168 | 6.0 | 13.0 | 0.00 | 0.00 | 0.00 | 63 | 1009.8 |
| 20260506040935 | 70 | 183 | 1.0 | 11.0 | 0.00 | 0.00 | 0.00 | 63 | 1009.7 |
| 20260506040431 | 70 | 165 | 10.0 | 8.0 | 0.00 | 0.00 | 0.00 | 63 | 1009.7 |
| 20260506035935 | 70 | 172 | 13.0 | 11.0 | 0.00 | 0.00 | 0.00 | 62 | 1009.7 |
| 20260506035438 | 70 | 173 | 9.0 | 14.0 | 0.00 | 0.00 | 0.00 | 62 | 1009.7 |
| 20260506034932 | 70 | 154 | 3.0 | 12.0 | 0.00 | 0.00 | 0.00 | 62 | 1009.7 |
| 20260506034435 | 70 | 140 | 3.0 | 10.0 | 0.00 | 0.00 | 0.00 | 62 | 1009.6 |
| 20260506033932 | 70 | 174 | 1.0 | 11.0 | 0.00 | 0.00 | 0.00 | 61 | 1009.6 |
| 20260506033432 | 70 | 162 | 15.0 | 16.0 | 0.00 | 0.00 | 0.00 | 61 | 1009.6 |
| 20260506032932 | 70 | 155 | 15.0 | 13.0 | 0.00 | 0.00 | 0.00 | 61 | 1009.6 |
| 20260506032441 | 70 | 152 | 7.0 | 7.0 | 0.00 | 0.00 | 0.00 | 60 | 1009.8 |
| 20260506031931 | 70 | 157 | 7.0 | 11.0 | 0.00 | 0.00 | 0.00 | 60 | 1009.7 |
| 20260506031435 | 70 | 171 | 9.0 | 10.0 | 0.00 | 0.00 | 0.00 | 60 | 1009.8 |
| 20260506030932 | 70 | 181 | 4.0 | 15.0 | 0.00 | 0.00 | 0.00 | 60 | 1009.8 |
| 20260506030432 | 70 | 195 | 3.0 | 7.0 | 0.00 | 0.00 | 0.00 | 60 | 1009.8 |
| 20260506025934 | 70 | 149 | 4.0 | 11.0 | 0.00 | 0.00 | 0.00 | 59 | 1009.8 |
| 20260506025439 | 71 | 184 | 4.0 | 7.0 | 0.00 | 0.00 | 0.00 | 59 | 1009.7 |
| 20260506024937 | 71 | 175 | 13.0 | 11.0 | 0.00 | 0.00 | 0.00 | 58 | 1009.7 |
| 20260506024432 | 71 | 90 | 3.0 | 10.0 | 0.00 | 0.00 | 0.00 | 58 | 1009.9 |
| 20260506023935 | 71 | 178 | 3.0 | 11.0 | 0.00 | 0.00 | 0.00 | 58 | 1009.8 |
| 20260506023438 | 71 | 180 | 7.0 | 9.0 | 0.00 | 0.00 | 0.00 | 57 | 1009.9 |
| 20260506022932 | 71 | 161 | 7.0 | 19.0 | 0.00 | 0.00 | 0.00 | 57 | 1009.8 |
| 20260506022435 | 71 | 179 | 4.0 | 13.0 | 0.00 | 0.00 | 0.00 | 57 | 1009.8 |
| 20260506021932 | 71 | 253 | 3.0 | 13.0 | 0.00 | 0.00 | 0.00 | 57 | 1009.8 |
| 20260506021435 | 71 | 152 | 12.0 | 10.0 | 0.00 | 0.00 | 0.00 | 57 | 1009.8 |
| 20260506020935 | 71 | 167 | 13.0 | 13.0 | 0.00 | 0.00 | 0.00 | 57 | 1009.7 |
| 20260506020435 | 71 | 159 | 10.0 | 15.0 | 0.00 | 0.00 | 0.00 | 57 | 1009.8 |
| 20260506015935 | 72 | 184 | 6.0 | 13.0 | 0.00 | 0.00 | 0.00 | 57 | 1009.8 |
| 20260506015438 | 72 | 160 | 7.0 | 11.0 | 0.00 | 0.00 | 0.00 | 56 | 1009.7 |
| 20260506014932 | 72 | 97 | 3.0 | 16.0 | 0.00 | 0.00 | 0.00 | 56 | 1009.6 |
| 20260506014432 | 72 | 128 | 1.0 | 9.0 | 0.00 | 0.00 | 0.00 | 56 | 1009.6 |
| 20260506013932 | 72 | 144 | 4.0 | 11.0 | 0.00 | 0.00 | 0.00 | 56 | 1009.6 |
| 20260506013432 | 72 | 172 | 1.0 | 15.0 | 0.00 | 0.00 | 0.00 | 56 | 1009.5 |
| 20260506012938 | 72 | 128 | 6.0 | 10.0 | 0.00 | 0.00 | 0.00 | 56 | 1009.5 |
| 20260506012436 | 72 | 183 | 1.0 | 12.0 | 0.00 | 0.00 | 0.00 | 55 | 1009.4 |
| 20260506011932 | 72 | 148 | 7.0 | 13.0 | 0.00 | 0.00 | 0.00 | 55 | 1009.4 |
| 20260506011431 | 73 | 182 | 6.0 | 21.0 | 0.00 | 0.00 | 0.00 | 55 | 1009.3 |
| 20260506010932 | 73 | 186 | 16.0 | 23.0 | 0.00 | 0.00 | 0.00 | 54 | 1009.3 |